Overview Statistics Trail Chart Weather Telemetry Raw packets
 

This is the latest recevied weather packets stored in our database for station/object OE6ATD-13. If no packets are shown the sender has not sent any weather packets the latest 10 day(s).

<< 49 50 51 52 53 54 55 >>
Time Temp. Humidity Pressure Rain* Wind** Luminosity Snow
1787943018 23.89° C 80% 1011.6 hPa 0 mm - 0 W/m² -
1787942434 23.89° C 80% 1011.3 hPa 0 mm - 0 W/m² -
1787941816 23.89° C 78% 1011.2 hPa 0 mm - 0 W/m² -
1787941227 24.44° C 77% 1011 hPa 0 mm - 0 W/m² -
1787940623 25° C 75% 1010.9 hPa 0 mm - 0 W/m² -
1787940019 25° C 74% 1011.1 hPa 0 mm - 0 W/m² -
1787939429 25.56° C 73% 1011.1 hPa 0 mm - 0 W/m² -
1787938825 26.11° C 72% 1011 hPa 0 mm - 0 W/m² -
1787938221 26.67° C 70% 1011.1 hPa 0 mm - 3 W/m² -
1787937617 27.22° C 69% 1011.1 hPa 0 mm - 8 W/m² -
1787937028 27.22° C 63% 1011.3 hPa 0 mm - 15 W/m² -
1787936424 27.78° C 62% 1011.4 hPa 0 mm - 22 W/m² -
1787935820 28.33° C 61% 1011.5 hPa 0 mm - 30 W/m² -
1787935215 28.33° C 60% 1011.4 hPa 0 mm - 42 W/m² -
1787934626 28.89° C 59% 1011.6 hPa 0 mm - 48 W/m² -
1787934022 30° C 56% 1011.7 hPa 0 mm - 92 W/m² -
1787933427 30° C 55% 1011.7 hPa 0 mm - 134 W/m² -
1787932828 29.44° C 56% 1011.7 hPa 0 mm - 122 W/m² -
1787932224 30° C 55% 1011.8 hPa 0 mm - 108 W/m² -
1787931620 30° C 55% 1011.9 hPa 0 mm - 218 W/m² -
1787931025 30° C 56% 1012.1 hPa 0 mm - 269 W/m² -
1787930420 29.44° C 57% 1012.1 hPa 0 mm - 224 W/m² -
1787929816 29.44° C 60% 1012.2 hPa 0 mm - 163 W/m² -
1787929226 29.44° C 60% 1012.2 hPa 0 mm - 146 W/m² -
1787928622 29.44° C 59% 1012.1 hPa 0 mm - 116 W/m² -

* Rain latest hour (hover to see other rain measurements)
** Current wind speed in m/s (hover to see current wind gust speed)